User: anonymous   Login
Location: Unspecified
(0.0000°N, 0.0000°E)
Time: 15:19:19
(UTC+00:00)
Language:

Transit VE-3 - Orbit

View from above orbital plane
View from above orbital plane
View from above satellite
View from above satellite

Ground track
Ground track

The orbit data is extracted from the following two-line orbital elements,

1 00705U 63049C   18232.17083439  .00000028  00000-0  29857-4 0  9990
2 00705  89.9064  96.8416 0033345 193.7954 280.0878 13.47323308687783
Epoch (UTC): 20 August 2018 04:06:00
Eccentricity: 0.0033345
inclination: 89.9064°
perigee height: 1057 km
apogee height: 1107 km
right ascension of ascending node: 96.8416°
argument of perigee: 193.7954°
revolutions per day: 13.47323308
mean anomaly at epoch: 280.0878°
orbit number at epoch: 68778

The dashed part of the orbit path shows where the satellite is in the earth's shadow,  

DLR